GFSNIL_850_spd_000.txt.gz
Wind_Speed
32 34 36 34 32 33 35 26 27 23 20 15 15 20 19 23 30 35 23 26 29 32
31 35 35 31 28 23 28 30 26 19 24 23 27 27 30 26 22 20 25 28 29 31
32 33 31 21 15 18 21 18 13 21 19 21 22 13 14 16 20 25 27 30 32 34
31 31 24 16 13 15 16 12 18 18 14 13 13 14 19 23 26 29 32 33 35 36
29 24 18 15 13 13 12 8 10 11 11 14 18 21 24 27 30 32 34 34 33 34
24 17 15 14 14 13 10 11 9 12 16 19 22 26 27 30 30 30 31 32 32 34
16 14 14 13 11 9 7 12 15 17 21 24 26 28 31 30 31 33 31 31 30 31
16 16 13 9 9 11 13 11 16 22 24 25 29 29 31 31 30 31 34 37 40 42
14 15 17 18 21 8 9 13 20 23 26 28 30 30 27 28 31 34 38 43 46 48
12 12 13 7 4 8 14 20 24 25 28 29 24 25 27 32 37 40 42 38 35 33
7 9 8 10 13 19 23 24 27 27 25 26 26 30 32 34 40 36 33 29 29 31
9 13 19 26 25 23 25 26 25 26 27 28 27 29 36 35 30 28 29 31 33 32
18 16 17 20 22 23 22 24 25 25 23 24 32 34 29 23 23 28 29 29 29 27
19 20 21 20 19 21 22 23 23 25 27 30 28 25 22 21 20 23 28 29 30 30

GFSNIL_850_spd_003.txt.gz
Wind_Speed
30 31 32 35 35 35 30 27 22 20 23 24 29 22 14 17 22 25 27 30 26 22
34 36 33 32 32 31 28 24 24 23 22 18 17 15 25 31 30 14 15 17 22 24
41 37 31 30 27 26 21 19 16 12 15 20 25 22 17 15 13 17 20 22 26 28
43 35 33 30 25 21 16 12 11 15 19 15 6 10 14 17 19 21 24 27 30 33
51 34 26 22 17 17 13 15 13 10 7 7 11 15 18 21 23 25 28 29 28 30
39 23 20 20 16 11 9 6 8 11 13 15 17 19 22 24 27 28 28 29 30 30
26 15 16 13 10 11 6 7 10 14 19 23 25 25 27 29 29 30 30 29 29 30
14 9 13 13 12 10 14 18 12 17 22 24 27 28 28 28 26 26 29 32 36 38
12 11 12 16 15 12 10 14 16 20 24 27 28 28 24 25 27 31 37 41 42 42
12 13 13 13 14 15 17 18 19 22 27 29 27 26 26 29 33 35 39 41 38 35
12 14 16 19 21 21 18 21 26 27 27 27 27 27 28 32 38 39 36 32 30 30
19 19 19 20 21 24 24 24 24 25 26 25 26 30 34 34 32 32 31 27 25 26
19 21 23 23 23 22 23 25 25 23 25 28 32 32 28 27 27 28 27 27 27 26
22 22 22 22 22 25 24 23 24 27 29 29 26 26 24 24 21 22 26 27 26 29

GFSNIL_850_spd_006.txt.gz
Wind_Speed
27 32 37 39 40 37 34 35 31 29 18 18 20 19 13 10 10 13 16 23 26 26
36 40 43 43 40 31 29 30 22 16 11 8 9 12 19 17 19 27 21 19 17 18
41 45 46 44 29 23 27 21 11 7 8 14 19 22 25 26 17 17 15 14 16 18
44 47 45 31 19 16 14 8 6 9 14 19 16 13 11 12 13 16 19 21 23 26
43 40 29 21 9 7 5 5 8 15 9 8 13 17 18 20 21 22 23 25 27 27
37 31 21 9 8 8 8 8 11 14 15 17 16 21 23 24 25 26 27 28 28 28
27 25 13 7 8 10 7 14 18 18 14 17 21 22 27 29 29 30 28 26 27 29
20 20 15 13 12 14 19 24 23 20 17 19 23 28 30 29 26 27 29 31 34 35
17 18 15 12 13 16 21 24 24 22 22 24 27 28 26 25 26 29 32 35 38 39
8 14 19 21 22 21 23 21 20 24 27 27 25 24 24 25 29 34 37 37 35 33
17 15 18 20 22 23 24 24 25 25 25 26 25 26 30 33 34 34 33 31 30 28
19 20 23 24 23 23 23 24 25 24 25 27 30 31 31 29 30 31 30 27 23 23
21 23 23 23 23 24 25 24 24 26 28 29 29 28 28 26 28 29 27 24 25 21
22 22 22 23 23 22 23 26 27 28 28 27 27 28 25 25 23 22 25 27 25 23

GFSNIL_850_spd_012.txt.gz
Wind_Speed
24 23 26 28 33 34 30 29 27 16 11 9 7 6 5 6 10 15 18 17 16 14
25 28 34 39 38 33 29 23 16 9 9 8 6 7 7 10 13 10 10 10 11 14
25 29 32 30 25 22 17 12 8 9 7 7 8 13 19 13 9 9 9 8 10 12
23 23 21 20 17 15 12 9 8 7 9 13 21 28 15 10 10 9 9 10 12 14
19 17 19 17 14 13 11 10 10 12 18 24 22 13 12 12 12 12 14 14 16 17
17 18 16 16 16 14 14 14 15 18 23 21 17 15 15 15 16 18 18 18 18 18
18 14 15 15 15 15 16 16 17 17 19 18 16 17 16 16 18 19 19 18 17 18
11 11 14 16 16 16 16 17 17 17 16 16 16 15 21 18 17 19 20 20 20 20
11 14 15 15 17 18 18 16 16 16 16 17 15 20 22 23 21 22 23 24 23 23
14 15 15 17 18 18 17 16 17 17 16 15 16 23 26 27 26 22 22 22 23 23
14 14 16 17 17 17 17 18 17 17 17 18 18 25 26 27 24 21 21 22 22 23
13 14 16 16 17 17 18 18 18 17 19 20 20 23 26 25 21 21 22 21 20 20
13 14 15 16 17 17 18 18 18 18 19 20 19 21 22 20 20 21 20 20 19 20
12 13 14 16 17 19 20 19 20 21 22 19 20 22 22 21 19 19 21 20 20 18

GFSNIL_850_spd_015.txt.gz
Wind_Speed
17 17 18 19 24 24 25 26 23 20 16 19 18 12 14 15 17 26 30 20 18 18
18 18 19 21 23 23 23 22 22 20 19 12 11 17 17 18 23 20 15 13 12 11
20 20 22 22 22 23 21 21 21 18 13 13 16 21 25 31 21 15 15 13 12 13
20 19 19 21 20 20 18 18 16 14 16 20 26 27 27 17 17 15 12 13 15 15
20 20 21 19 20 18 19 18 19 21 25 23 21 17 18 17 14 15 16 17 17 18
21 20 20 18 17 17 18 19 20 21 20 21 22 20 19 19 18 19 19 20 22 22
20 18 16 15 15 18 19 20 20 20 21 20 20 20 19 15 18 19 21 22 22 23
19 17 15 16 17 18 19 20 19 19 19 19 20 20 21 25 23 21 23 23 24 24
18 15 16 16 17 19 19 19 19 19 20 20 20 24 27 30 31 26 24 24 24 24
17 17 16 17 19 19 19 19 20 20 20 20 20 24 29 34 34 26 23 23 24 25
18 19 18 18 18 19 19 20 21 20 19 20 20 25 31 35 31 23 23 23 24 24
19 17 17 18 18 19 20 21 21 19 20 22 22 24 28 31 23 22 23 22 21 22
19 18 15 16 18 19 21 21 21 21 23 24 24 22 28 25 25 24 22 22 22 21
18 14 13 15 18 20 22 22 21 26 25 23 21 24 23 23 22 23 25 24 23 21

GFSNIL_850_spd_018.txt.gz
Wind_Speed
14 14 16 20 26 24 24 22 20 25 25 24 20 18 22 19 21 20 26 26 17 16
16 19 23 25 25 21 19 21 21 21 19 23 21 23 24 27 32 33 20 19 18 15
19 19 23 25 20 19 24 30 26 20 20 21 22 25 26 27 26 18 21 17 16 14
21 22 21 16 20 26 31 28 20 22 26 27 26 25 22 21 21 21 20 21 21 20
21 20 19 23 28 24 21 21 22 23 26 25 24 23 22 22 22 22 19 21 23 24
21 20 22 21 20 19 19 21 23 25 25 26 25 23 22 22 18 18 20 25 24 24
21 23 19 19 20 19 20 22 24 23 23 23 23 23 22 20 24 28 34 32 26 27
24 21 17 18 18 18 20 21 21 22 22 23 24 23 24 28 30 32 35 36 31 25
23 20 16 21 16 18 20 20 22 21 22 22 21 24 28 31 33 34 35 38 28 23
27 19 20 16 14 15 19 20 21 22 21 20 20 24 31 33 33 35 36 27 25 27
27 19 17 16 12 14 16 19 22 21 20 23 29 31 31 34 31 34 29 25 27 26
28 19 19 12 13 12 17 20 19 19 24 28 32 30 27 27 32 29 30 29 23 24
20 15 19 22 8 15 17 17 22 26 29 31 30 24 25 26 27 27 28 31 27 25
30 29 22 11 12 14 18 19 25 30 30 28 24 23 23 26 24 24 30 29 27 23

GFSNIL_850_spd_021.txt.gz
Wind_Speed
20 19 20 22 26 27 21 22 22 32 28 23 25 24 22 24 27 26 28 27 19 21
15 20 23 26 26 24 19 23 32 32 21 23 27 28 27 26 26 23 22 21 21 20
20 22 23 23 24 20 23 33 29 23 19 23 27 26 23 22 20 21 21 20 20 20
25 23 22 24 26 29 31 34 21 21 22 22 24 23 23 23 23 23 20 16 15 17
28 23 24 26 29 32 29 27 18 19 24 25 24 23 22 22 24 23 19 17 21 27
26 29 28 29 31 28 25 24 19 20 23 24 24 24 25 25 24 23 26 31 34 33
31 28 30 30 23 25 26 21 18 18 20 24 24 24 23 24 28 32 34 33 33 34
31 30 26 29 42 26 19 14 16 17 20 22 23 25 28 31 33 36 38 36 36 36
31 24 30 33 19 15 15 11 16 19 19 21 24 26 28 30 35 36 35 32 34 31
34 35 28 25 26 12 9 11 15 19 18 19 23 26 29 34 31 28 28 30 31 30
33 31 32 30 22 10 13 11 15 15 17 23 24 28 30 26 26 28 27 27 28 29
35 40 35 25 20 22 9 12 11 17 22 27 27 27 24 26 28 27 29 27 29 26
34 25 26 15 15 11 9 14 20 22 25 26 27 24 23 25 24 23 26 32 33 25
24 22 12 12 10 11 15 17 19 21 25 25 26 25 27 28 25 26 30 31 27 22

GFSNIL_850_spd_024.txt.gz
Wind_Speed
20 22 23 27 31 32 30 27 22 27 32 23 20 20 22 22 21 19 17 19 18 18
21 26 30 31 30 31 29 26 25 28 27 21 18 20 21 22 21 20 17 18 17 17
27 29 31 33 31 32 31 28 27 28 26 17 18 19 19 18 16 16 18 20 20 17
29 32 30 27 27 30 31 30 25 27 22 20 21 21 20 20 20 21 22 20 18 21
29 27 33 33 32 32 32 32 30 27 21 22 21 20 21 22 24 24 21 23 26 31
24 28 32 32 31 32 30 19 18 20 23 19 20 22 21 23 23 25 28 31 33 35
28 29 26 23 23 29 35 38 17 17 17 19 23 22 22 23 26 28 30 33 35 31
29 26 33 25 26 28 29 24 18 11 16 19 20 21 21 24 26 31 34 31 27 27
28 33 33 34 36 32 26 22 5 10 15 19 16 19 24 28 31 31 27 26 27 27
31 33 37 40 29 24 23 10 5 11 13 14 20 23 27 28 26 26 26 27 27 29
33 37 39 26 19 15 10 9 7 10 15 19 22 26 27 26 24 26 28 27 27 27
33 33 22 11 10 10 6 6 9 15 17 22 25 26 26 27 28 27 26 28 28 24
28 22 13 12 8 9 6 9 12 14 20 23 24 24 25 25 27 27 27 25 23 20
21 18 11 11 10 9 9 6 12 18 22 22 23 24 24 26 22 21 21 22 19 17

GFSNIL_850_spd_027.txt.gz
Wind_Speed
13 17 23 26 28 29 31 32 30 29 24 24 24 21 19 20 19 16 15 15 16 19
20 24 26 28 28 30 30 29 28 27 25 21 21 19 18 18 16 16 15 16 17 20
20 24 26 25 27 27 27 29 31 25 21 20 20 18 18 18 20 20 21 21 20 20
19 20 21 24 28 28 29 28 23 19 18 18 15 21 19 20 21 22 22 22 20 23
16 16 22 26 27 26 25 26 30 35 36 22 12 19 20 21 22 22 23 24 26 29
21 27 28 25 30 31 26 27 30 31 29 14 14 17 20 22 23 23 24 26 31 34
29 29 28 28 30 32 34 30 31 29 24 14 12 17 21 20 21 24 28 32 32 29
27 25 26 31 37 35 26 21 22 22 10 11 11 19 16 22 27 30 31 29 27 26
22 26 31 36 34 26 20 18 21 12 6 10 14 16 23 27 29 28 28 29 28 27
26 29 34 32 25 18 12 10 8 6 7 10 18 21 24 26 25 26 27 28 27 27
29 33 31 24 12 9 6 8 5 5 10 17 19 23 24 26 26 26 27 26 24 23
33 31 24 15 12 11 10 10 7 13 14 19 22 22 22 24 28 29 24 20 20 19
27 23 21 15 13 12 10 7 12 12 18 21 20 21 22 25 27 25 22 19 18 15
22 24 17 12 11 10 11 9 11 16 18 18 18 20 22 25 23 21 21 20 19 17

GFSNIL_850_spd_030.txt.gz
Wind_Speed
10 14 17 19 20 20 22 24 24 26 28 25 22 17 20 18 19 19 19 18 19 20
14 16 18 19 20 21 24 24 25 26 27 20 17 18 19 17 20 18 17 17 20 20
16 18 19 18 19 22 23 24 28 27 26 31 33 29 20 16 17 18 17 18 18 19
18 17 16 21 21 21 24 27 27 24 26 27 29 27 18 13 17 18 19 19 21 21
14 19 23 21 23 26 29 33 30 25 26 27 23 21 14 14 18 19 20 22 25 29
21 22 22 24 27 30 34 33 27 21 22 23 23 17 15 13 20 19 22 28 31 35
22 21 23 28 32 35 33 27 21 17 17 19 17 12 12 15 18 25 29 32 33 32
18 21 27 32 36 33 27 23 17 15 17 11 6 10 11 17 25 29 32 32 32 30
19 25 30 33 31 27 21 13 9 7 6 5 8 11 18 23 28 28 29 30 31 30
24 28 30 28 26 19 15 9 10 7 7 8 11 17 23 25 25 25 27 29 26 23
26 29 27 23 22 18 17 15 13 8 10 13 17 23 24 24 24 25 25 23 21 21
27 27 25 24 19 16 16 17 12 11 15 16 21 23 21 21 23 24 23 20 19 18
25 24 24 21 16 15 14 13 12 15 15 20 21 20 20 21 23 24 23 21 20 18
22 22 23 19 15 14 14 13 12 15 19 20 18 17 18 20 20 21 24 22 22 21

GFSNIL_850_spd_033.txt.gz
Wind_Speed
7 9 11 13 16 17 18 20 25 25 27 29 28 29 25 28 24 17 18 19 19 20
9 11 14 16 17 17 22 25 25 25 27 26 25 26 24 27 23 20 17 19 19 19
11 14 15 15 20 23 23 25 27 30 29 23 23 26 23 24 28 13 16 18 19 20
12 13 17 22 21 23 26 29 32 31 27 21 20 26 16 23 14 16 17 18 22 21
14 19 23 21 21 24 29 32 31 27 24 18 19 22 23 19 17 17 17 20 23 27
20 21 18 18 22 29 33 30 27 23 17 15 17 17 13 15 13 15 17 22 28 30
17 15 16 22 28 31 29 25 22 16 13 14 11 6 8 11 13 18 24 28 30 30
15 15 21 27 29 27 23 20 18 13 9 7 6 7 10 15 19 25 27 27 28 29
15 18 25 27 25 23 20 16 13 11 9 6 8 11 16 20 25 25 25 27 28 26
17 23 25 24 23 23 19 16 15 14 9 10 12 16 20 25 23 23 24 25 25 21
21 23 23 23 22 21 18 16 15 16 11 13 16 19 24 23 22 22 23 23 21 18
21 23 23 22 20 18 15 15 14 12 13 16 17 23 23 21 21 22 22 21 17 16
22 23 22 21 20 16 14 15 15 15 16 16 21 21 20 20 21 21 20 19 17 18
23 21 22 22 21 17 15 14 14 14 16 20 20 19 18 18 19 17 18 19 20 19

GFSNIL_850_spd_036.txt.gz
Wind_Speed
5 3 5 9 12 13 13 15 16 18 20 21 22 21 20 19 18 17 20 18 17 15
7 9 10 13 13 10 13 15 18 21 23 24 22 21 20 19 19 19 20 21 16 14
10 11 12 13 12 11 14 18 21 24 24 23 21 19 19 18 20 16 17 15 15 16
9 12 13 10 10 12 18 21 23 22 21 20 18 15 19 22 15 14 14 14 15 17
11 11 8 10 13 17 20 22 20 18 17 15 13 13 15 14 10 11 13 15 16 19
7 8 9 12 16 19 20 19 16 15 14 12 11 11 10 8 9 10 12 15 18 21
11 14 13 15 19 19 19 17 14 13 11 10 8 6 6 6 10 13 15 17 18 19
13 14 13 17 19 18 18 14 12 11 9 9 6 4 7 10 13 16 17 16 17 18
13 14 15 19 19 16 14 14 13 12 11 9 6 12 14 16 18 15 15 16 17 17
13 16 15 16 15 15 15 14 13 11 11 10 9 14 17 20 21 15 14 16 17 17
13 13 14 14 14 15 14 13 13 13 11 10 11 17 19 23 17 14 14 15 15 16
12 14 14 14 14 14 14 13 14 12 11 11 11 17 21 21 16 14 15 15 15 16
13 14 14 14 15 15 14 14 14 12 12 13 15 19 20 18 14 14 14 14 15 17
14 15 14 14 15 16 14 13 13 13 12 14 16 15 19 17 16 13 14 14 15 15

GFSNIL_850_spd_039.txt.gz
Wind_Speed
7 4 6 7 7 9 10 11 13 16 18 20 22 23 23 23 23 23 21 19 18 18
8 6 7 7 6 7 9 11 14 16 19 21 21 21 20 21 22 21 20 18 15 16
8 7 5 5 7 7 9 12 15 17 18 19 19 19 18 18 19 20 21 13 13 14
8 7 5 5 7 8 11 14 16 17 17 17 17 17 19 16 17 16 14 13 13 15
9 7 7 8 9 10 13 15 16 16 16 16 16 14 13 14 16 13 12 12 13 17
9 8 9 10 10 12 14 15 15 15 15 16 15 13 12 11 8 10 12 15 16 19
10 10 10 10 11 13 15 15 14 14 15 14 12 12 9 9 10 13 15 16 17 17
10 10 10 11 12 14 15 15 14 15 16 13 13 12 11 10 12 14 17 16 15 16
9 10 10 11 14 14 15 15 16 16 16 15 13 18 17 15 17 16 15 15 15 16
10 10 11 13 13 14 15 16 16 19 18 14 14 21 19 18 18 16 13 14 15 16
10 11 13 14 14 14 15 16 15 17 18 15 15 20 20 21 20 13 13 14 15 15
11 13 14 15 16 16 16 16 15 15 17 16 13 20 21 21 19 12 13 13 14 15
12 13 15 16 16 16 16 16 15 14 16 15 14 20 22 20 17 13 12 12 13 16
13 14 14 15 14 15 17 17 19 20 20 16 16 15 22 22 17 12 13 13 12 11

GFSNIL_850_spd_042.txt.gz
Wind_Speed
15 14 13 8 12 12 12 15 16 17 15 20 21 23 24 24 23 23 23 23 21 21
16 13 10 15 16 14 12 10 12 16 19 19 20 20 19 19 19 20 21 22 22 15
11 13 15 13 11 12 12 13 13 16 17 17 16 16 20 22 21 21 21 22 16 12
17 17 9 9 11 11 11 12 14 15 16 15 15 19 23 19 15 17 16 17 17 15
17 9 9 10 12 11 12 12 15 16 14 15 17 22 19 15 17 16 12 10 13 16
10 13 10 11 12 14 13 16 17 15 14 15 17 20 14 12 12 9 9 13 16 17
10 13 10 13 14 15 17 17 15 14 14 17 20 15 13 10 8 10 13 15 17 19
12 11 14 14 16 16 16 16 15 14 17 20 20 16 17 18 19 20 19 14 15 15
10 15 12 14 14 15 14 14 15 17 19 21 22 21 23 22 22 21 20 13 15 18
14 11 11 11 12 14 15 17 18 19 20 25 20 24 24 21 20 22 18 13 15 17
10 10 8 11 15 16 17 19 18 17 19 22 22 21 23 20 20 21 18 12 17 16
8 10 13 14 16 19 19 19 19 17 18 19 20 21 23 18 20 23 17 16 13 15
16 13 13 15 18 20 19 19 18 21 22 23 23 23 19 21 24 22 20 13 13 16
12 14 16 19 20 19 17 16 21 24 27 21 21 22 23 23 25 23 20 17 16 10

GFSNIL_850_spd_045.txt.gz
Wind_Speed
21 20 18 19 20 18 14 18 23 24 26 27 24 24 21 20 17 16 19 22 23 23
25 24 21 21 19 20 19 21 26 24 22 22 21 19 18 18 19 20 22 23 24 21
27 24 22 18 18 17 23 19 21 21 20 19 18 18 20 21 24 25 17 20 19 17
25 22 17 20 18 12 18 22 17 17 19 17 17 20 21 23 18 16 17 15 14 10
18 14 17 15 12 14 20 19 18 19 19 16 18 21 21 22 14 12 10 9 10 13
14 15 13 14 15 15 18 20 21 20 18 17 18 21 21 19 13 14 13 12 14 17
10 11 16 15 13 18 20 21 21 20 17 15 21 23 23 19 16 17 16 17 21 18
12 13 15 11 18 22 22 21 21 17 16 17 21 23 23 21 20 22 25 23 21 16
13 14 14 16 16 17 19 21 19 19 21 23 25 25 24 23 22 23 23 22 21 16
16 15 7 14 14 17 19 21 23 24 24 23 23 23 23 23 21 22 21 21 20 18
6 1 7 8 14 16 18 21 24 26 27 24 24 25 22 23 23 24 20 21 23 20
3 4 9 12 16 22 23 22 23 24 24 24 26 26 26 24 26 20 20 20 20 19
4 6 12 14 21 22 23 25 22 24 22 25 28 28 24 25 23 21 21 24 22 20
8 8 16 23 24 21 19 20 18 21 24 25 28 26 21 20 21 20 21 22 18 18

GFSNIL_850_spd_048.txt.gz
Wind_Speed
22 23 22 23 26 26 25 19 19 17 17 23 23 25 26 24 23 22 23 24 24 24
26 26 24 24 26 26 21 19 12 14 18 25 27 26 24 24 22 23 26 28 22 18
28 24 23 24 24 20 19 14 14 17 19 24 23 24 24 23 22 25 22 18 18 17
26 25 23 21 18 15 15 17 21 16 21 22 23 23 22 22 22 26 20 16 12 11
30 26 21 17 16 19 20 18 12 20 19 22 23 21 21 21 23 27 20 18 17 16
28 22 18 19 15 21 19 8 17 19 20 23 21 20 20 24 26 26 22 21 20 18
24 20 16 16 15 13 6 14 17 17 20 20 19 20 23 24 26 24 22 23 22 24
18 18 18 16 15 10 9 11 14 18 22 22 21 22 24 25 24 21 22 25 26 23
17 21 17 14 13 9 8 12 18 21 22 24 24 25 23 23 24 23 22 23 23 23
22 20 16 11 7 5 12 19 17 22 23 23 25 25 23 23 25 25 24 24 25 23
17 13 10 5 7 21 14 13 22 23 22 24 24 25 23 23 25 26 23 27 26 20
15 6 10 23 19 9 16 21 23 23 26 24 25 23 23 25 27 24 24 24 21 20
10 24 17 9 12 18 21 22 18 18 20 21 22 24 25 25 24 24 21 20 20 19
19 7 7 13 18 21 20 18 19 22 21 22 24 25 26 26 24 23 21 20 20 18

GFSNIL_850_spd_051.txt.gz
Wind_Speed
24 22 22 21 22 23 25 27 27 22 17 17 19 18 22 28 20 18 19 20 22 20
23 22 23 24 25 27 30 30 29 20 18 18 16 16 21 19 17 17 18 22 21 19
26 26 27 28 28 30 34 31 22 19 16 14 14 15 18 17 18 18 20 23 21 17
29 30 28 27 30 32 31 18 23 22 12 12 12 17 19 18 19 20 21 23 23 18
33 32 32 31 31 29 15 26 15 10 9 12 14 17 17 17 19 21 22 24 22 20
34 31 32 30 26 21 21 18 17 8 12 13 14 16 17 18 20 21 22 23 21 21
34 32 28 21 23 18 17 7 6 11 10 12 18 17 20 19 20 20 21 22 21 23
28 24 22 21 17 16 13 10 6 8 15 20 22 21 20 19 19 20 20 20 20 23
24 20 17 18 18 17 9 8 11 23 22 19 20 19 20 20 21 18 20 22 23 23
18 19 20 18 14 10 8 21 18 17 18 18 21 20 20 21 19 19 22 26 24 24
23 21 14 8 4 18 17 11 12 15 18 23 22 22 22 20 19 22 25 25 24 24
16 10 4 13 20 25 10 11 15 20 22 22 21 19 18 19 21 23 26 23 24 23
2 10 18 27 11 9 13 19 23 25 21 21 22 20 20 21 23 26 27 23 23 22
19 18 13 9 11 16 22 24 23 24 23 23 24 24 23 23 26 27 28 25 24 23

GFSNIL_850_spd_054.txt.gz
Wind_Speed
39 31 24 23 21 21 24 24 26 28 27 25 18 14 18 17 19 19 17 16 16 16
36 26 26 22 22 23 26 28 30 31 31 22 21 18 18 16 15 15 16 16 17 18
23 24 25 26 28 29 29 31 33 32 23 22 20 12 10 16 14 15 15 16 16 17
25 27 30 31 31 30 30 32 31 22 22 22 14 13 9 13 17 16 15 16 15 18
27 31 33 36 31 30 30 30 26 25 21 16 6 7 12 18 15 15 16 15 18 18
30 33 33 30 28 26 26 24 16 15 15 10 8 10 16 15 14 14 16 18 18 18
31 29 28 26 23 22 23 18 15 13 9 4 13 14 14 14 15 18 18 18 19 19
25 22 26 21 21 22 17 11 12 7 12 15 14 18 14 18 20 18 19 18 19 20
21 23 20 21 19 16 10 12 11 15 15 22 14 16 19 21 22 20 20 19 20 22
19 19 18 16 13 14 17 12 16 23 22 13 15 18 23 23 24 24 22 20 21 24
17 17 15 15 8 7 16 17 29 14 12 16 19 23 24 23 24 24 22 21 22 25
16 15 9 5 9 19 26 18 11 14 18 22 25 22 22 22 22 24 24 23 24 25
8 2 11 21 20 14 12 14 18 22 24 25 26 25 25 23 25 26 27 27 27 27
13 15 14 10 10 14 18 21 23 25 25 26 26 27 27 27 28 29 30 29 29 28

GFSNIL_850_spd_057.txt.gz
Wind_Speed
18 34 36 35 31 28 29 29 28 29 29 29 28 28 21 22 16 12 13 17 17 14
29 36 37 36 31 26 26 29 31 30 29 32 30 25 25 22 14 11 13 15 13 14
32 34 33 33 29 29 28 30 29 30 33 31 25 23 20 12 8 12 13 14 14 14
32 28 29 28 29 27 25 21 34 30 27 23 20 17 14 10 12 10 15 14 15 16
24 24 24 26 28 31 32 29 28 28 28 24 19 18 15 12 12 14 14 15 16 16
19 21 25 30 31 29 30 22 26 26 22 20 12 15 11 13 15 15 16 15 16 18
20 23 23 21 15 15 19 21 24 22 16 14 9 13 13 14 15 16 16 16 19 20
12 12 14 15 14 14 17 19 16 15 12 10 17 19 17 16 18 18 20 21 21 22
6 8 8 11 14 16 18 15 12 7 13 18 23 20 13 17 22 23 24 24 24 23
5 9 13 14 15 16 11 9 6 14 19 22 18 13 15 20 25 27 27 27 26 25
11 11 13 13 10 7 5 10 18 24 19 13 14 17 21 24 25 27 28 28 27 26
14 14 10 8 4 12 17 21 15 12 13 18 22 23 25 24 27 28 28 28 27 28
10 4 7 12 12 11 8 10 14 18 21 22 24 24 24 24 27 31 33 33 33 32
6 7 6 5 6 9 13 16 18 21 22 24 25 27 27 26 28 31 33 35 35 34

GFSNIL_850_spd_060.txt.gz
Wind_Speed
30 25 22 20 31 33 33 32 32 30 31 30 32 33 30 28 22 22 18 15 13 13
32 26 21 27 33 31 28 31 27 28 31 33 29 33 29 25 22 19 14 13 15 13
32 28 33 33 30 27 28 31 29 30 29 30 35 32 29 25 22 15 13 15 13 13
26 26 27 29 27 24 27 32 27 24 25 28 34 29 24 21 14 15 15 14 15 15
18 19 22 21 18 21 30 30 26 25 19 32 32 27 26 12 14 15 14 16 15 17
15 16 18 21 24 26 28 26 28 20 27 29 22 18 11 12 14 15 16 16 18 18
13 13 13 14 16 16 10 14 20 25 19 18 15 12 13 16 14 17 17 18 19 20
7 5 7 8 9 12 12 11 15 15 16 11 9 13 19 18 20 17 19 20 21 23
4 5 5 6 9 9 11 13 16 13 6 11 15 18 19 19 18 20 20 23 24 25
8 8 9 10 10 11 11 8 4 9 14 15 20 19 12 13 19 20 22 26 27 28
11 11 11 10 8 3 2 7 11 14 18 14 10 13 15 19 24 25 25 26 27 29
10 6 5 3 1 5 8 10 10 7 7 9 12 19 21 23 26 25 27 28 29 30
9 5 1 4 4 2 2 3 6 10 13 17 19 21 22 23 26 28 28 29 30 32
3 1 1 1 1 3 5 9 12 15 17 19 19 21 25 25 27 26 30 30 33 34

GFSNIL_850_spd_063.txt.gz
Wind_Speed
27 27 26 28 23 26 24 28 25 28 29 31 31 26 24 30 27 25 24 22 21 18
29 29 26 30 29 27 28 31 29 30 28 28 23 27 32 28 28 27 25 23 20 18
32 31 29 27 28 30 29 25 22 23 28 29 30 34 27 29 28 24 24 20 18 19
31 28 28 28 30 29 26 23 22 27 27 26 27 20 26 26 24 23 19 19 19 15
23 20 21 18 20 22 23 23 25 27 24 13 14 20 26 20 16 12 17 19 14 18
20 16 18 20 20 21 19 21 23 22 17 18 20 21 16 16 13 14 16 13 17 21
17 15 15 15 15 14 14 12 11 15 19 18 13 12 13 11 15 15 11 18 21 22
13 12 9 8 8 8 9 10 8 10 14 10 12 10 13 16 16 16 21 18 21 22
8 8 8 7 5 6 9 8 8 9 9 8 9 13 14 17 17 19 16 19 21 24
12 12 10 10 9 7 6 7 6 6 8 11 13 16 15 11 14 15 17 20 23 26
15 13 12 9 9 7 6 5 5 7 9 10 7 13 13 15 19 22 22 23 25 28
14 12 9 8 7 5 3 3 2 2 1 4 5 14 19 21 20 21 22 23 25 27
12 11 9 3 1 3 4 3 3 3 4 7 7 13 20 23 25 26 27 28 28 30
7 6 7 7 6 5 4 2 3 5 6 7 8 9 20 24 25 25 29 32 35 34

GFSNIL_850_spd_066.txt.gz
Wind_Speed
26 29 25 28 27 35 32 29 24 26 28 25 24 30 34 34 33 31 30 30 27 20
30 35 29 34 36 38 35 31 24 26 28 26 27 27 28 31 32 28 29 28 23 19
37 37 35 33 35 33 31 31 27 24 27 30 28 26 28 29 26 26 30 25 20 19
36 37 34 30 31 28 28 27 27 24 28 25 24 26 25 24 23 27 26 20 18 17
33 36 25 26 28 22 26 23 26 24 20 22 20 18 17 22 25 20 16 17 16 17
31 21 17 18 18 19 19 20 20 17 18 17 17 18 23 20 14 12 13 15 17 14
27 16 16 17 18 18 19 17 15 15 16 17 19 16 13 11 12 13 16 15 13 16
16 16 16 17 15 15 13 12 12 11 12 13 13 9 9 10 13 16 17 17 18 19
16 13 13 12 11 9 9 11 10 9 8 9 9 8 10 12 15 18 17 14 12 17
11 11 11 11 11 9 10 10 9 8 7 9 9 9 11 10 9 11 11 14 18 22
16 15 15 13 13 13 12 10 9 9 7 7 4 4 8 10 12 15 17 18 19 21
17 17 17 13 12 12 10 9 6 5 5 4 6 9 12 16 19 20 21 22 24 27
16 15 13 12 10 8 8 9 8 8 9 9 11 11 15 19 22 24 25 25 27 28
15 11 8 10 10 10 12 12 11 10 10 10 11 15 18 20 22 24 25 26 29 30

GFSNIL_850_spd_069.txt.gz
Wind_Speed
42 39 40 37 38 39 41 37 35 34 26 22 22 25 27 26 29 31 30 29 29 23
43 42 44 39 40 39 37 33 33 34 25 23 24 25 22 23 25 28 27 27 26 26
44 42 38 40 37 40 36 26 36 38 27 25 22 21 21 21 23 24 23 23 24 25
45 42 38 37 33 24 31 36 37 32 30 23 20 22 22 20 22 20 20 22 22 21
42 43 31 36 30 32 31 26 22 21 22 21 22 20 21 20 19 19 20 19 17 16
31 25 28 33 39 29 26 22 21 18 17 18 18 20 18 16 18 18 16 14 16 16
26 21 17 24 19 17 17 17 16 17 18 18 16 15 16 16 16 14 13 13 15 17
21 16 15 14 16 15 15 16 17 18 16 14 14 16 15 13 12 12 13 15 16 14
18 14 11 12 13 14 15 15 14 14 13 13 13 12 12 10 11 12 15 14 9 9
13 13 11 12 14 14 12 13 13 12 12 12 11 11 10 11 12 10 8 9 12 15
13 13 14 14 15 15 13 13 14 14 12 11 11 10 9 8 8 10 11 14 17 20
17 19 19 17 16 17 17 17 14 12 10 13 11 11 10 11 12 13 15 17 20 21
20 18 17 16 16 16 14 11 13 15 13 11 11 11 14 15 15 17 18 17 18 19
19 17 15 15 13 14 17 17 16 15 13 13 13 14 16 18 19 18 18 18 20 21

GFSNIL_850_spd_072.txt.gz
Wind_Speed
41 42 41 37 35 38 38 38 34 35 34 33 31 29 25 26 27 30 32 34 27 29
45 46 44 43 45 39 39 38 37 34 36 37 33 28 26 24 29 30 28 24 24 24
46 46 47 48 44 45 44 41 39 37 33 39 38 33 27 26 27 28 22 22 20 21
47 48 49 51 49 42 42 37 34 35 36 44 41 31 28 26 29 22 20 20 20 21
40 43 50 49 48 40 29 31 35 38 40 39 31 31 25 26 27 25 21 20 20 20
45 52 47 39 33 33 29 29 31 36 34 28 26 25 29 28 24 21 18 19 19 18
37 31 34 37 39 42 33 36 29 33 28 23 22 24 26 24 22 20 20 19 17 15
31 31 32 30 31 29 25 27 29 25 24 26 24 25 22 19 19 19 19 16 13 15
28 23 21 18 19 22 24 24 26 28 26 24 21 19 19 19 19 18 16 15 16 15
24 21 22 19 21 21 22 24 24 23 20 18 17 17 18 17 17 16 17 18 15 15
21 22 23 22 22 22 22 20 19 18 17 17 18 17 17 17 17 16 15 15 14 15
23 23 22 20 21 21 21 20 20 20 21 20 18 18 18 18 16 14 13 14 16 18
22 21 21 22 23 22 21 23 22 21 19 19 20 19 17 16 14 14 14 15 17 18
20 20 19 20 22 22 22 21 21 20 19 17 17 17 16 16 15 14 15 15 15 16

GFSNIL_850_spd_075.txt.gz
Wind_Speed
48 47 45 43 41 39 38 38 38 38 36 36 36 36 34 31 29 28 28 30 28 32
47 46 45 43 40 38 38 39 38 36 35 37 36 37 35 31 30 31 27 29 31 30
45 44 43 42 40 40 40 43 44 41 39 40 39 38 37 37 38 32 30 28 27 24
42 42 42 42 44 43 44 47 42 38 39 36 34 42 38 38 41 31 30 27 26 25
20 32 36 46 45 39 44 41 31 36 42 41 44 44 38 37 34 32 33 29 28 23
43 42 43 46 45 39 39 35 37 43 40 42 39 38 45 42 35 30 28 27 24 21
42 45 45 44 41 41 30 36 40 45 39 38 40 37 34 34 29 31 28 23 22 22
41 44 41 38 36 38 43 41 39 40 36 34 31 36 28 26 29 29 27 23 22 20
36 36 34 32 31 33 38 42 39 35 34 29 24 22 26 30 27 22 21 22 22 22
40 32 27 23 21 20 27 27 26 24 22 24 26 26 23 22 21 21 22 21 20 20
33 23 18 18 19 20 20 21 22 24 25 22 20 19 19 19 20 20 19 19 19 18
18 19 20 23 22 22 22 23 22 20 20 18 17 18 19 19 18 17 17 17 16 16
17 21 22 21 20 20 19 20 20 19 17 18 19 20 18 16 15 16 17 17 18 19
18 18 18 19 19 20 23 22 20 20 20 20 18 18 17 17 16 16 16 18 19 19

GFSNIL_850_spd_078.txt.gz
Wind_Speed
44 44 45 43 41 41 40 38 35 33 31 32 32 34 34 35 35 36 34 35 33 32
44 44 44 44 43 42 40 38 35 33 33 32 32 34 35 37 35 35 34 31 31 33
43 42 42 43 43 41 40 41 39 38 36 35 35 35 35 34 33 35 36 35 36 33
40 40 39 42 43 42 44 43 42 40 39 37 38 38 38 43 35 36 34 35 36 40
33 31 37 46 46 48 46 40 41 43 42 38 40 34 36 38 39 37 37 34 37 32
43 33 32 42 45 51 49 46 46 43 43 36 40 30 30 30 32 37 39 40 33 34
44 43 46 45 39 36 38 39 38 42 37 33 37 35 34 38 37 36 36 37 29 25
41 44 45 44 44 42 39 39 40 37 37 34 33 35 33 31 30 32 32 27 22 21
36 37 36 38 37 37 36 37 36 35 38 35 34 35 30 30 29 26 22 24 25 23
30 33 35 35 32 29 27 28 29 32 33 33 28 28 28 21 23 23 22 21 22 21
28 29 30 29 25 25 23 21 22 21 21 22 21 22 24 24 20 19 19 19 19 19
25 22 23 22 17 17 20 21 20 20 19 20 19 19 17 16 16 16 17 16 15 15
14 12 14 16 18 20 22 21 20 18 15 15 15 14 13 13 13 14 14 13 13 13
12 14 15 18 19 19 18 17 17 17 16 16 14 14 14 13 12 12 12 12 12 14

GFSNIL_850_spd_081.txt.gz
Wind_Speed
43 43 43 40 42 40 42 41 39 34 32 30 29 28 29 31 33 33 33 35 36 35
40 45 45 45 41 43 40 38 35 34 34 33 31 30 31 31 33 32 33 34 33 34
36 41 44 43 45 44 43 41 40 39 37 35 34 34 34 34 33 33 34 29 29 31
35 38 41 42 44 46 44 44 44 43 41 42 41 38 37 36 38 44 42 43 39 36
28 30 33 36 36 40 44 45 46 44 44 42 42 40 37 38 43 37 36 35 37 38
36 36 33 24 36 40 40 42 43 44 45 45 45 41 42 43 41 31 28 27 28 30
36 39 37 32 40 42 42 44 45 45 46 46 42 44 41 36 32 35 27 32 28 30
41 37 38 42 45 43 37 35 33 32 34 38 39 38 36 33 31 27 30 29 27 28
39 44 44 43 43 43 40 38 36 36 34 33 34 32 34 33 30 29 27 28 27 24
28 33 37 41 44 42 39 34 31 30 26 25 28 30 30 29 25 24 25 21 20 21
26 28 28 29 30 29 27 27 23 24 24 25 25 25 24 23 21 19 17 17 17 17
22 24 24 22 22 24 23 23 22 22 20 18 17 18 15 14 15 14 15 16 15 13
16 15 16 18 19 19 18 19 19 17 15 14 14 11 9 8 9 12 13 12 10 9
14 13 13 15 15 14 16 16 16 15 14 14 13 13 12 11 9 9 9 8 8 9

GFSNIL_850_spd_084.txt.gz
Wind_Speed
34 34 41 44 50 45 42 41 29 32 32 32 30 29 28 28 28 28 29 30 28 28
34 36 34 38 43 47 39 37 34 34 35 33 33 33 31 29 30 29 28 29 29 30
33 35 34 35 39 44 40 37 33 36 38 36 37 35 32 33 33 29 30 30 30 30
32 35 38 39 39 41 40 38 36 37 37 39 39 36 34 34 34 33 32 34 33 39
31 33 39 45 47 48 49 46 46 46 42 39 38 37 34 32 34 37 38 37 42 41
32 35 39 42 44 45 45 45 38 35 38 43 42 40 39 40 42 43 37 39 41 35
35 36 37 35 33 35 33 32 32 33 35 38 39 40 41 42 41 38 39 40 35 33
34 34 34 33 33 35 33 29 28 26 26 26 28 31 32 34 35 36 35 34 32 32
33 35 34 32 30 27 26 27 28 30 30 31 31 33 30 31 33 31 32 34 33 33
30 31 34 32 26 25 25 24 26 25 29 30 29 28 24 25 30 32 32 31 30 29
28 27 25 27 27 29 33 32 30 27 26 28 27 25 26 27 28 29 28 26 23 21
26 25 27 29 28 27 26 26 25 26 25 24 24 24 23 22 22 21 20 18 16 15
27 25 24 24 24 24 23 23 23 22 21 19 19 18 16 13 12 14 15 15 14 13
26 23 20 19 20 20 21 20 19 18 17 16 14 12 11 10 10 11 12 11 10 8

GFSNIL_850_spd_087.txt.gz
Wind_Speed
36 44 47 41 46 49 48 42 34 30 28 26 23 25 25 24 23 23 24 26 27 26
35 38 49 51 50 50 49 47 37 29 30 26 26 27 26 27 27 26 27 28 28 29
37 35 38 46 52 49 52 48 41 40 33 31 29 29 28 27 29 29 31 30 32 30
38 36 36 36 40 49 53 48 47 40 43 34 31 31 30 31 32 31 32 32 33 34
37 38 39 39 36 37 46 47 44 41 35 34 34 34 34 35 35 35 35 35 33 34
35 39 41 44 44 40 38 43 41 41 41 38 35 35 36 36 36 37 37 36 36 35
36 37 38 39 41 42 41 41 42 44 40 39 37 36 36 34 34 35 37 38 42 39
37 33 32 33 34 36 40 39 38 39 37 35 34 36 35 33 34 35 36 39 35 35
32 30 33 33 34 34 35 36 35 36 35 34 34 35 34 33 31 32 35 36 36 34
30 30 31 30 29 30 32 32 34 33 32 30 28 32 33 30 31 32 32 31 32 31
31 29 29 29 29 29 29 30 31 32 33 33 32 32 34 32 30 26 28 29 27 24
32 30 30 31 30 26 32 37 35 33 33 33 32 30 28 25 23 22 22 21 18 15
26 26 26 28 38 42 38 34 33 30 28 26 21 21 23 21 18 16 16 14 12 10
24 27 34 39 36 35 32 27 25 24 20 17 15 15 13 11 11 10 11 11 10 9

GFSNIL_850_spd_090.txt.gz
Wind_Speed
39 41 42 46 44 46 48 51 43 40 36 35 29 28 29 28 30 27 25 25 24 25
38 43 41 49 47 52 52 47 46 44 40 32 31 31 31 31 29 28 29 28 28 28
36 37 37 43 54 51 50 49 47 43 40 36 32 32 31 32 31 30 31 30 31 30
37 37 37 42 46 50 52 53 48 45 43 35 36 34 33 34 33 33 32 33 31 32
39 37 38 40 43 47 47 50 53 53 47 38 34 36 35 36 36 34 35 34 34 34
37 41 41 39 39 41 46 48 54 53 54 47 42 40 42 39 37 37 37 36 36 38
39 42 44 41 40 39 38 46 48 51 49 50 46 42 41 41 38 38 38 37 39 39
31 37 39 42 43 40 37 37 42 41 45 45 44 41 36 35 36 35 35 35 36 38
34 33 35 36 39 41 42 41 40 40 41 43 41 40 41 38 36 34 34 35 36 39
37 39 38 37 38 39 41 42 43 42 42 42 41 43 39 37 38 40 40 42 42 43
36 37 39 38 39 40 39 40 39 41 41 39 39 38 37 36 38 38 42 45 38 33
36 35 35 36 37 36 35 35 38 41 40 40 40 39 36 34 35 39 32 30 25 22
32 33 33 32 32 34 39 41 39 39 37 37 36 36 36 37 38 35 25 20 16 13
28 29 33 34 37 40 39 39 38 38 37 35 34 30 30 30 22 20 19 16 15 13

GFSNIL_850_spd_093.txt.gz
Wind_Speed
41 36 33 32 35 40 43 41 39 37 36 39 42 40 31 32 31 30 27 30 32 28
40 39 35 34 39 44 44 39 39 40 37 37 39 37 34 34 35 35 34 33 31 33
39 39 38 37 41 43 42 39 44 44 42 36 34 34 33 33 34 35 36 34 32 31
37 38 39 39 39 42 42 42 48 47 44 40 37 39 35 33 34 33 32 34 32 30
37 36 39 41 41 39 45 45 45 48 46 45 43 40 36 35 35 36 37 37 33 33
40 39 39 39 40 38 42 46 44 45 45 46 43 43 41 39 38 38 37 36 36 35
44 42 40 39 40 39 39 43 45 49 48 52 50 46 46 40 37 39 40 39 38 38
39 41 42 41 40 41 41 41 42 44 48 55 57 54 51 46 42 42 44 45 41 39
35 37 40 41 41 41 40 39 38 40 43 50 53 56 57 57 56 50 45 39 38 40
36 36 36 40 43 44 41 39 38 38 39 40 42 45 48 47 47 46 42 41 41 41
37 36 35 36 38 41 44 45 44 41 39 39 40 40 42 42 41 42 42 43 44 43
41 39 36 36 36 36 37 38 41 45 43 42 43 44 43 43 44 44 44 41 38 37
39 42 41 39 36 34 35 39 40 42 45 45 44 46 44 44 42 39 35 32 32 24
38 38 37 37 39 40 41 41 40 38 39 42 43 42 40 38 37 36 33 25 22 20

GFSNIL_850_spd_096.txt.gz
Wind_Speed
25 25 29 32 34 35 32 31 37 42 40 43 46 44 45 38 35 31 27 32 36 35
26 30 34 33 32 32 34 37 40 39 42 47 49 46 45 39 35 29 31 32 30 31
28 32 36 33 29 30 30 35 39 40 38 35 41 43 46 47 36 31 33 33 34 29
30 33 38 32 30 29 30 35 39 38 37 37 38 38 41 45 37 35 38 39 37 39
33 36 37 36 33 32 33 36 38 39 38 38 37 39 40 42 40 38 36 37 36 34
36 37 39 39 36 35 35 38 41 41 43 44 43 40 39 39 39 37 36 35 35 37
38 38 38 36 37 38 39 41 42 42 42 49 47 48 47 44 44 43 42 39 37 36
38 38 38 38 37 38 41 42 40 41 45 46 51 52 50 49 48 48 46 42 40 39
35 39 40 39 39 38 40 42 42 41 42 47 49 50 52 50 51 48 45 44 44 42
33 36 38 41 40 41 42 40 43 42 42 44 45 46 46 49 51 52 51 52 52 49
31 35 37 37 40 42 40 41 41 42 42 41 40 41 42 44 47 51 55 54 55 54
33 34 36 39 39 37 40 41 41 39 37 40 41 39 38 38 42 47 49 49 51 53
33 37 39 36 37 37 37 39 41 41 42 41 42 42 40 39 41 45 48 52 47 42
34 36 36 35 38 40 39 40 40 40 40 42 43 42 42 42 42 44 43 39 34 30

GFSNIL_850_spd_099.txt.gz
Wind_Speed
20 19 19 20 21 19 19 27 32 40 41 51 54 54 45 42 40 42 33 34 34 29
23 22 21 21 22 21 22 24 27 35 42 47 51 48 48 44 41 33 35 34 33 29
23 23 22 23 26 25 23 26 29 30 35 40 37 38 40 43 41 38 39 33 29 32
25 24 24 26 26 27 26 27 29 32 38 45 48 47 47 47 46 45 38 35 30 30
24 25 26 29 30 26 24 25 27 32 34 34 41 44 46 49 49 47 46 37 31 32
28 27 28 29 31 28 25 23 23 27 33 34 36 38 43 47 51 52 49 41 33 35
30 30 29 28 31 31 29 28 27 29 32 35 36 35 37 40 42 44 45 44 40 36
29 28 30 31 32 32 33 32 32 31 35 37 37 36 39 40 41 42 42 41 39 41
27 29 31 32 33 33 33 35 35 38 38 41 44 43 44 45 46 45 45 44 45 44
26 28 30 33 34 35 35 35 37 40 41 43 44 43 43 46 50 51 51 50 49 50
25 25 28 30 33 35 36 37 37 40 41 42 44 41 41 43 45 48 50 51 53 51
24 27 29 32 34 33 34 37 39 39 41 42 43 41 39 37 40 44 47 48 48 48
27 30 29 30 32 34 36 36 35 36 40 42 42 41 38 39 40 41 43 45 46 48
22 26 30 33 28 31 34 34 37 40 42 42 43 39 37 38 41 42 42 45 46 42

GFSNIL_850_spd_102.txt.gz
Wind_Speed
21 19 16 16 16 16 19 23 25 27 31 37 50 54 54 49 52 42 40 38 36 35
21 21 19 18 17 17 15 12 16 21 26 35 38 49 51 56 53 46 38 34 41 38
22 21 19 18 17 16 10 6 11 17 26 34 41 47 51 52 50 47 44 40 39 35
23 22 22 20 19 16 12 8 9 14 20 30 37 42 50 50 47 47 44 40 40 36
24 23 24 23 21 19 15 15 15 18 23 28 31 44 50 44 45 44 46 39 39 39
25 25 24 24 24 21 20 19 21 21 25 31 36 39 43 50 48 46 48 44 39 39
26 23 23 23 24 25 23 20 20 21 25 30 35 41 42 46 41 46 48 47 45 47
22 21 22 22 23 24 26 24 21 20 20 24 30 32 35 41 44 44 45 48 50 49
16 22 22 22 22 23 25 26 25 25 24 24 28 31 32 35 37 41 42 46 45 47
18 17 21 23 23 24 26 27 29 29 29 30 30 29 32 34 35 35 39 41 44 43
17 19 19 20 24 26 27 29 29 30 30 32 34 34 35 36 40 41 42 44 45 46
19 20 21 24 24 24 26 28 28 29 30 32 33 34 35 37 42 44 46 45 46 48
19 20 22 24 24 27 29 27 25 24 26 28 31 33 34 35 37 42 44 46 48 50
13 17 21 22 24 25 24 27 30 32 32 31 34 35 35 34 35 41 45 48 50 50

GFSNIL_850_spd_105.txt.gz
Wind_Speed
26 23 22 18 19 21 27 30 31 26 29 27 34 45 48 49 52 49 47 47 46 41
25 22 21 16 17 16 17 20 26 29 31 27 27 47 46 51 49 47 46 47 47 40
22 21 19 17 19 18 16 18 21 26 28 27 31 41 49 51 47 47 48 47 47 40
22 21 20 19 19 18 16 14 16 18 19 22 31 36 45 49 57 53 51 52 48 44
22 22 22 21 20 18 16 11 11 15 16 16 21 28 37 45 48 57 53 50 49 49
23 23 22 22 21 18 16 13 11 11 14 14 16 23 33 38 42 53 52 47 53 49
22 22 21 21 21 20 19 18 15 14 14 16 17 22 29 35 35 37 47 51 50 45
19 21 20 20 21 21 22 20 19 18 18 17 21 18 32 36 41 44 46 49 43 46
10 19 20 19 19 21 22 24 22 21 19 19 22 26 29 35 43 45 45 44 43 44
7 7 16 18 19 20 21 22 25 24 22 22 20 17 22 27 33 38 43 45 41 42
7 7 8 10 19 19 19 21 22 24 24 24 24 22 22 22 27 30 32 34 35 35
13 13 14 15 13 14 19 20 23 23 23 25 25 23 24 26 29 31 33 33 35 35
14 15 16 18 20 16 17 20 18 23 26 27 26 27 26 26 29 32 35 38 39 40
7 10 12 14 17 21 23 24 27 28 28 28 29 29 29 29 32 34 38 39 39 40

GFSNIL_850_spd_108.txt.gz
Wind_Speed
29 23 20 20 19 20 24 22 29 24 26 27 25 32 35 42 49 51 51 54 50 37
31 23 18 17 17 16 16 22 27 30 27 22 30 35 42 47 51 51 49 48 49 45
30 22 18 16 17 16 17 19 23 28 28 29 29 32 46 50 50 49 46 47 49 47
29 22 20 17 17 17 15 15 17 22 25 28 30 30 34 41 52 48 46 50 50 45
29 23 22 21 18 19 18 15 15 17 20 27 28 29 33 37 46 48 49 51 45 45
31 26 24 22 21 20 19 17 15 14 18 18 21 24 28 34 38 46 50 52 46 52
29 27 25 22 21 21 19 19 16 14 13 14 13 15 16 24 35 40 44 47 50 50
25 25 20 20 20 20 19 18 17 17 15 12 13 13 14 18 24 29 36 44 47 45
22 26 23 19 18 19 19 19 17 17 15 14 13 15 12 10 18 24 27 36 42 41
13 20 21 18 18 18 18 19 21 19 18 17 15 13 14 17 21 27 29 30 34 40
14 12 13 17 16 16 16 18 18 19 20 19 19 17 15 17 21 31 32 36 36 37
16 14 11 10 10 13 15 15 16 17 18 19 19 20 20 20 23 27 28 27 28 31
14 15 15 14 12 13 11 12 17 20 21 21 23 22 22 23 26 29 31 31 32 31
7 5 7 11 14 16 16 19 19 21 22 23 25 25 23 25 26 28 32 36 39 39

GFSNIL_850_spd_111.txt.gz
Wind_Speed
31 32 29 26 22 20 19 20 23 26 29 26 26 22 23 27 31 40 50 44 47 45
36 34 32 25 22 20 16 15 21 28 26 26 26 24 21 27 30 39 49 49 47 50
38 36 28 26 23 19 17 18 20 20 25 23 20 21 24 28 29 39 43 49 51 52
40 36 28 26 24 19 17 18 16 19 24 26 25 23 23 30 35 40 45 50 51 50
37 35 29 27 23 19 17 17 15 17 17 23 24 23 23 30 36 42 45 46 49 49
30 32 31 24 22 20 21 18 15 17 17 20 22 20 22 25 27 37 45 46 40 41
31 28 29 24 21 22 21 19 17 15 13 15 15 18 21 22 27 31 35 42 46 44
34 28 23 22 21 21 22 20 17 17 15 11 11 12 15 15 17 23 29 34 40 40
29 29 23 23 22 21 23 20 18 17 17 15 13 9 9 11 12 14 21 28 31 34
28 28 24 22 21 20 20 20 20 18 18 16 12 9 11 10 9 12 14 16 22 30
22 25 25 21 19 19 18 18 18 17 17 15 14 11 10 9 11 11 13 13 17 21
24 23 20 18 18 17 17 17 15 14 15 15 16 15 13 12 13 13 14 12 18 22
22 22 24 23 22 19 16 17 20 19 18 17 16 15 16 16 17 17 22 20 26 26
20 21 21 21 22 21 20 19 17 18 20 19 19 19 19 19 20 20 23 27 28 22

GFSNIL_850_spd_114.txt.gz
Wind_Speed
32 32 30 30 30 33 32 33 32 31 31 28 26 24 23 23 25 24 31 34 50 38
35 34 33 34 26 36 29 23 28 29 28 28 29 24 22 23 27 25 31 33 41 49
36 32 30 38 29 32 30 27 26 24 26 27 29 25 25 21 23 26 28 33 39 39
36 31 32 37 28 30 28 25 27 22 23 28 26 25 23 23 22 24 27 31 40 40
31 27 31 36 30 33 30 26 24 20 22 25 23 23 22 22 19 25 27 29 40 43
28 27 35 35 29 33 25 24 23 20 19 20 23 23 23 22 20 23 26 30 34 41
25 25 34 31 30 33 24 25 23 23 21 16 15 18 21 22 24 21 23 30 35 40
23 23 30 32 31 28 26 27 24 23 19 15 13 16 19 19 18 19 21 28 36 33
23 24 30 32 29 25 27 26 22 20 18 15 13 11 13 16 17 16 15 17 21 25
22 27 30 28 28 28 28 25 23 22 18 15 11 10 8 10 10 12 12 12 14 17
24 30 26 29 27 27 30 24 20 17 17 15 13 10 9 9 9 8 9 9 9 11
24 29 27 28 27 26 25 25 23 20 18 16 16 13 11 10 10 9 8 8 9 10
25 27 30 29 28 28 26 26 25 23 21 20 17 14 13 11 10 10 11 12 10 11
16 27 32 32 31 30 25 25 24 23 22 21 17 16 15 15 16 15 14 14 15 14

GFSNIL_850_spd_117.txt.gz
Wind_Speed
19 22 32 31 30 30 30 30 34 43 41 36 35 31 28 28 29 27 28 25 29 28
31 25 32 34 31 31 31 33 30 34 38 36 35 32 29 30 29 27 28 23 30 30
29 31 28 36 35 30 37 33 33 29 33 36 34 33 29 32 29 26 28 26 26 32
29 30 33 35 35 31 33 31 34 32 28 32 32 31 31 28 28 29 26 25 25 27
22 21 29 32 29 33 33 35 32 27 25 27 32 32 33 29 30 27 26 26 25 27
20 22 28 24 25 34 33 37 31 27 26 26 27 31 31 27 27 26 24 25 24 26
22 23 22 24 28 34 35 35 28 26 24 25 26 28 28 29 25 23 20 23 25 27
20 23 23 24 29 31 38 32 29 25 25 24 21 25 28 27 24 22 21 20 23 23
19 22 23 24 30 35 36 30 26 26 25 23 21 22 23 23 23 20 18 20 23 25
19 23 24 24 30 36 34 27 29 27 24 21 18 18 21 22 21 20 19 17 17 18
15 21 21 24 28 37 28 32 27 26 23 20 18 17 18 18 17 16 14 15 14 15
11 20 21 31 36 34 34 30 30 26 26 24 21 18 18 17 17 15 15 15 14 12
15 13 22 30 31 34 34 33 31 31 28 26 24 20 20 18 18 17 16 16 14 14
12 5 18 31 33 33 35 34 34 35 33 30 24 21 21 20 19 17 17 17 16 15

GFSNIL_850_spd_120.txt.gz
Wind_Speed
17 19 21 23 25 27 31 32 34 34 34 38 39 34 34 35 33 35 31 31 35 32
23 23 29 31 28 28 30 33 32 31 32 33 40 38 35 36 33 31 29 33 31 31
26 28 29 33 33 33 32 33 31 31 34 33 31 38 38 37 33 30 30 32 30 27
28 29 30 31 32 38 33 35 33 31 34 35 28 31 37 37 33 28 31 30 28 30
28 29 29 25 30 34 34 34 36 34 36 33 33 29 35 36 34 28 32 31 30 31
27 26 25 22 19 25 30 34 36 33 34 36 33 29 32 31 31 32 28 31 30 28
25 23 22 22 17 24 26 30 33 36 33 34 28 28 28 30 31 31 31 29 28 27
26 22 21 24 21 22 25 28 33 37 36 35 28 27 27 28 29 28 28 26 25 27
26 21 18 21 22 23 26 28 34 38 34 30 26 25 25 26 28 27 27 28 25 22
28 23 19 20 21 26 28 29 36 40 36 29 25 22 21 25 27 27 26 28 25 22
30 25 22 20 24 28 28 31 42 38 37 26 26 22 22 24 25 24 21 22 21 21
32 26 21 20 24 27 28 33 37 38 33 28 24 23 23 25 24 23 21 19 19 18
28 24 19 19 21 29 35 40 39 32 27 28 25 24 24 24 24 23 22 21 20 19
23 20 16 16 14 26 39 40 40 35 32 30 27 26 26 24 23 23 23 23 22 20